Wind_Speed
91 90 89 87 85 84 85 85 86 86 85 85 84 84 85 85 84 84 83 82 82 82 83 83 83 83 82 82 82 83 83 83 82 82 81 80 80 79 78 77 76 75 74 73 72 71 71 70 70 71 71 72 72 73 72 72 71 69 68 67 65 64 64 64 64 65 66 67 67 67 67 68 68 68 68 68 67 67 67 67 67 67 68 68 68 68
91 91 91 89 87 86 86 86 87 87 88 87 87 87 87 87 87 86 85 85 84 84 84 84 84 84 84 84 84 84 84 84 84 84 83 82 82 81 80 79 78 77 76 75 75 74 73 72 72 72 72 73 73 73 73 72 71 69 68 67 65 65 64 64 65 66 67 68 69 69 69 69 69 69 69 68 68 68 67 67 67 68 68 68 68 68
91 92 93 92 91 89 88 88 88 89 90 90 90 90 89 89 89 89 88 87 87 87 86 86 86 86 86 86 85 85 86 86 86 86 85 84 83 83 82 81 80 79 78 77 76 76 75 74 74 74 74 74 74 73 72 71 70 69 68 67 66 65 65 65 66 67 69 70 70 70 70 70 70 70 69 69 68 68 68 68 68 68 69 69 69 68
91 92 93 94 95 94 93 92 91 91 92 92 92 92 92 92 92 91 91 90 90 90 89 89 88 88 87 87 87 87 87 87 87 87 86 86 85 84 83 83 82 81 80 79 78 77 77 76 75 75 74 74 74 73 72 71 71 70 69 68 67 67 66 67 67 68 69 71 72 72 71 71 71 70 69 69 69 69 69 69 69 69 69 69 69 68
94 93 93 95 96 97 97 96 95 94 94 94 94 95 95 95 94 94 94 93 93 92 92 91 90 89 89 88 88 88 88 88 88 88 88 87 86 85 85 84 83 82 81 81 80 79 78 77 76 75 75 74 73 73 72 71 71 70 70 69 69 68 68 68 68 69 70 72 73 73 72 72 71 71 70 70 69 69 69 69 69 69 70 69 69 69
97 96 95 95 96 97 98 99 98 97 96 96 96 96 97 97 97 97 96 96 96 95 94 93 92 91 90 90 90 90 90 89 89 89 89 89 88 87 86 85 85 84 83 82 81 80 79 78 77 76 75 74 74 73 73 72 72 72 72 71 71 70 70 70 70 71 71 73 73 73 73 72 72 71 71 70 70 70 70 69 69 70 70 70 70 69
99 99 98 97 97 97 98 99 100 100 100 99 98 98 98 98 98 98 98 98 98 97 96 96 95 94 93 92 92 91 91 91 91 91 90 90 89 88 88 87 86 86 85 84 83 82 81 80 79 78 76 75 75 74 74 74 74 74 73 73 73 73 73 72 72 72 73 73 74 74 73 73 72 72 71 71 71 70 70 70 70 70 70 70 70 70
101 101 101 100 100 99 99 99 100 101 101 102 102 101 100 99 99 99 99 99 99 99 98 97 97 96 95 94 94 94 93 93 93 93 92 92 91 90 90 89 88 87 86 85 84 83 82 81 80 80 79 77 77 76 75 75 76 76 76 76 75 75 75 74 74 74 74 74 75 74 74 73 72 72 72 71 71 71 71 71 70 70 70 70 70 70
104 103 103 103 103 102 101 101 100 100 101 102 103 103 103 102 100 99 99 99 100 100 100 99 98 98 97 97 96 96 96 95 95 95 94 94 93 92 92 91 90 89 88 88 86 85 84 83 82 82 81 80 79 78 78 78 78 78 78 78 78 77 77 76 76 75 74 75 75 74 74 73 73 72 72 72 72 72 72 71 71 71 71 71 71 71
106 105 105 105 105 104 104 103 102 102 102 103 104 104 105 105 104 102 100 100 100 100 100 100 100 100 99 99 99 98 98 97 97 96 96 96 95 95 94 93 93 92 91 90 89 88 87 86 85 85 84 83 82 81 80 80 80 80 80 80 80 79 79 78 77 76 75 75 75 75 74 73 73 73 73 73 73 73 72 72 72 71 71 72 72 72
108 107 107 106 106 106 106 105 105 104 104 104 104 105 105 106 106 105 104 103 102 101 101 101 101 101 101 101 101 100 100 99 99 98 98 97 97 97 96 96 96 95 94 93 92 91 89 89 88 88 87 86 85 84 83 82 82 82 82 81 81 80 79 79 77 76 76 75 75 75 74 74 74 73 73 73 73 73 73 73 72 72 72 73 73 73
109 108 108 108 107 107 107 107 107 106 106 106 106 106 106 106 107 107 107 107 105 104 103 102 102 102 102 103 103 102 102 101 100 100 99 99 99 99 99 99 98 98 97 96 95 94 92 91 90 90 89 88 87 86 85 84 83 83 82 82 81 80 80 79 78 77 76 75 75 75 74 74 74 74 74 74 74 74 74 73 73 73 73 73 74 73
109 109 109 109 109 109 108 108 108 108 107 107 107 108 108 107 107 108 108 109 108 107 106 105 104 104 104 104 104 104 104 104 103 102 101 101 100 100 100 101 100 100 99 98 97 96 94 93 92 91 91 90 88 87 86 85 84 83 82 82 81 80 80 79 78 77 76 76 75 75 74 74 75 75 74 74 74 74 74 74 74 74 74 74 74 74
110 109 109 110 110 110 110 109 109 109 108 108 108 108 109 108 108 108 109 110 110 110 109 109 108 107 106 106 106 107 107 106 106 105 104 103 103 102 102 102 102 102 101 100 98 97 96 94 93 92 91 90 88 87 86 85 84 83 82 81 81 80 79 79 78 77 76 76 75 75 75 75 75 75 75 75 75 75 75 75 75 75 75 75 74 74
110 110 110 110 111 111 111 110 110 110 109 109 109 109 109 109 108 108 109 110 111 111 111 111 111 110 109 109 109 109 109 109 109 108 107 106 105 105 104 104 104 103 102 100 99 97 96 94 93 92 91 90 88 87 86 85 84 83 82 81 80 79 79 78 78 77 77 76 76 76 76 76 76 76 76 76 76 76 75 75 76 76 75 75 74 73
110 110 110 110 111 111 111 112 112 111 110 109 109 110 110 109 109 108 108 109 109 110 111 112 112 112 112 111 111 110 110 111 111 110 109 109 108 107 106 105 104 103 102 101 99 97 96 94 93 92 91 89 88 87 86 84 83 82 81 81 80 79 79 78 78 78 77 77 77 77 77 77 77 77 77 77 77 76 76 76 76 76 75 75 74 73
110 110 110 110 111 111 112 113 113 112 111 110 110 110 111 110 110 109 108 108 108 108 108 109 110 110 111 111 110 110 110 110 111 111 110 109 108 107 106 105 103 102 101 100 98 96 95 93 92 91 90 89 88 87 86 84 83 82 81 80 80 79 79 79 78 78 78 78 78 78 78 78 78 78 78 78 77 77 77 77 77 76 75 74 73 72
109 109 110 110 110 111 112 114 115 114 111 110 109 110 110 110 110 110 109 109 108 107 107 106 106 107 107 107 108 107 107 107 108 108 109 109 108 107 105 104 102 101 100 98 97 96 94 93 92 91 90 89 88 87 86 84 83 82 81 80 80 80 80 79 80 80 80 80 80 80 79 79 79 79 79 78 78 77 77 77 76 76 75 74 73 72
109 109 109 109 110 111 112 115 116 115 112 109 108 108 109 110 110 110 110 110 109 108 108 107 106 106 105 106 106 105 105 104 104 105 106 106 107 106 104 103 101 100 99 97 96 95 94 92 91 91 90 89 88 87 86 84 83 82 82 81 81 81 81 81 81 81 81 81 81 81 81 80 80 80 79 79 78 78 77 77 76 75 74 73 72 72
108 108 108 108 109 110 112 114 116 115 113 109 106 106 107 108 109 110 111 110 110 109 108 108 107 107 106 106 106 105 104 104 103 103 104 104 104 104 104 103 101 100 99 98 96 95 94 93 92 91 90 89 88 87 86 85 85 84 83 83 83 83 83 83 83 83 83 83 82 82 81 81 80 80 79 79 78 78 77 77 76 75 74 73 72 72
108 108 108 108 108 110 112 114 115 115 113 110 107 106 106 106 108 109 110 110 110 109 109 109 108 108 107 107 106 106 105 104 104 104 104 104 104 103 103 102 102 101 100 99 98 97 95 94 93 92 92 91 90 89 88 87 86 86 85 85 85 85 85 85 85 85 84 84 83 82 82 81 80 80 79 79 79 78 77 77 76 75 74 73 73 72
108 108 108 108 109 110 111 113 114 114 113 112 110 108 106 105 106 107 108 109 109 110 109 109 109 108 107 107 107 106 106 105 105 105 105 104 104 103 102 102 101 101 101 101 100 99 98 97 96 95 94 93 92 91 90 89 89 88 88 87 87 87 87 86 86 86 85 84 84 83 82 81 81 80 80 79 79 78 78 77 76 75 74 74 73 73
109 109 109 109 109 110 111 112 113 113 113 113 112 110 108 106 106 106 107 107 108 108 108 109 108 108 108 108 107 107 106 106 105 105 105 105 105 104 103 102 101 101 102 102 102 101 100 99 98 97 96 95 94 93 93 92 91 91 90 90 89 89 88 88 87 87 86 85 84 84 83 82 81 81 80 80 79 79 78 77 77 76 75 75 75 74
110 110 110 110 110 110 111 111 112 112 112 112 112 111 109 108 107 106 106 106 106 106 107 107 108 109 109 109 108 108 108 107 107 106 106 106 106 105 104 102 102 102 102 102 102 102 101 101 100 99 99 98 97 96 95 94 93 92 92 91 90 90 89 89 88 87 87 86 85 84 84 83 82 82 81 81 80 79 79 78 78 77 77 76 76 76
111 111 111 111 111 111 111 112 112 112 112 111 111 111 110 109 108 108 107 106 106 105 105 106 107 108 109 109 109 109 108 108 108 107 107 107 106 106 105 103 103 102 103 103 103 102 102 102 102 102 101 100 99 98 97 96 95 94 93 93 92 91 90 90 89 88 88 87 86 86 85 84 83 83 82 81 81 80 80 79 79 79 78 78 78 78
112 112 112 112 112 112 112 112 112 112 111 111 111 110 110 109 109 109 108 108 107 106 105 105 106 107 107 107 108 108 108 108 108 108 108 108 108 107 106 105 104 103 103 103 103 103 103 103 103 103 103 102 101 100 99 98 97 96 95 94 93 92 92 91 91 90 89 88 88 87 86 85 85 84 83 83 82 82 81 81 81 80 80 80 80 79
112 112 112 112 112 112 112 112 112 112 112 111 110 110 109 109 109 109 110 109 108 107 106 105 105 105 105 106 106 107 107 107 108 109 109 109 109 108 108 106 105 105 104 104 103 103 103 103 104 104 104 104 103 102 101 100 99 98 97 96 95 94 94 93 92 92 91 90 89 88 88 87 86 86 85 85 84 84 83 83 82 82 82 81 81 81
111 111 112 112 112 112 112 112 112 112 112 111 111 110 109 109 109 110 110 109 108 107 107 106 105 105 105 105 105 105 105 106 107 108 108 109 109 109 109 108 107 106 106 105 104 103 103 103 103 104 105 105 105 104 103 102 101 100 99 98 97 96 95 95 94 93 93 92 91 90 90 89 88 88 87 87 86 86 85 85 84 83 83 83 82 82
109 109 110 110 111 111 111 112 112 112 112 112 111 111 110 109 110 110 110 109 108 108 107 106 106 105 105 105 104 104 104 104 105 106 106 108 109 110 109 109 108 108 107 106 106 105 104 103 103 103 104 105 105 105 104 103 103 102 101 100 99 98 97 96 96 95 94 94 93 92 92 91 90 90 89 89 88 87 87 86 85 85 84 84 83 83
106 107 107 108 108 109 109 110 110 110 110 111 111 110 110 110 110 110 109 109 108 108 108 107 106 105 105 104 104 104 104 104 104 104 105 106 108 109 109 109 109 109 108 108 107 106 105 104 104 103 104 104 105 105 105 104 104 103 102 101 100 99 99 98 97 97 96 96 95 94 94 93 92 92 91 90 90 89 88 87 87 86 86 85 85 84
103 103 104 104 105 105 106 106 107 107 108 108 109 109 109 109 109 109 109 109 109 109 108 107 106 105 105 104 104 104 104 103 102 102 103 104 106 107 108 109 109 109 109 109 108 107 107 106 105 104 104 104 104 105 105 105 105 104 103 103 102 101 100 100 99 98 98 97 97 96 96 95 94 93 93 92 91 91 90 89 88 88 87 87 86 86
99 99 100 100 100 101 101 102 103 103 104 105 105 106 107 107 107 108 108 108 108 108 108 107 107 106 105 104 104 104 104 103 102 101 101 103 104 105 106 107 108 109 109 109 109 109 108 107 106 106 105 105 105 105 105 105 105 105 104 104 103 103 102 101 101 100 100 100 99 98 97 97 96 95 95 94 93 93 92 91 91 90 90 89 88 87
96 96 96 96 97 97 97 98 98 99 100 101 101 102 103 103 104 105 106 106 107 107 107 107 106 106 105 104 104 104 103 103 102 101 101 101 102 103 104 106 107 107 108 108 108 109 108 108 107 107 106 106 106 106 106 106 106 106 105 105 104 104 103 103 102 102 102 102 101 100 99 99 98 97 97 96 96 95 94 93 93 92 91 90 88 86
95 95 95 95 95 95 95 95 95 96 96 97 97 98 99 99 100 101 102 103 104 104 105 105 105 105 104 104 103 103 103 102 102 101 100 100 101 102 103 104 105 106 106 107 108 108 108 108 108 108 107 107 107 107 106 106 106 106 106 105 105 105 104 104 103 103 103 103 102 102 101 100 100 99 99 98 97 97 96 95 94 92 91 89 87 84
96 96 96 96 95 95 95 95 95 95 95 95 95 95 95 96 97 97 98 99 100 101 102 102 103 103 103 102 102 102 102 102 101 100 100 100 100 101 101 102 103 104 105 106 106 107 107 107 107 107 108 108 107 107 107 107 106 106 106 106 106 105 105 104 104 103 103 103 102 102 102 101 100 100 99 98 97 97 95 94 92 90 88 86 83 81
97 97 97 97 97 97 96 96 96 96 95 95 95 95 94 94 94 95 95 96 96 97 98 99 99 100 100 100 100 100 100 100 99 99 100 100 100 100 101 101 102 102 103 104 105 105 106 106 106 107 107 107 107 107 107 107 106 106 106 105 105 105 105 104 104 103 103 102 102 101 101 100 99 99 98 97 96 95 93 92 90 88 85 83 80 77
99 99 99 99 98 98 98 98 98 98 97 97 97 96 96 95 95 94 94 94 94 94 95 95 96 96 97 97 97 98 98 97 98 98 99 99 99 99 100 100 101 101 102 102 103 103 104 104 105 105 105 106 106 107 107 106 105 105 105 104 104 104 103 103 103 102 102 101 101 100 99 98 98 97 96 95 94 92 91 89 87 85 82 79 77 74
101 101 101 100 100 100 100 100 100 99 99 99 99 98 98 97 96 96 95 95 94 94 93 93 93 94 94 94 95 95 95 95 96 96 97 97 97 98 98 99 99 100 100 101 102 102 102 103 103 103 103 104 105 105 105 105 104 104 104 103 103 102 101 101 101 100 99 99 98 98 97 96 95 94 93 92 91 90 88 86 84 82 80 77 75 72
103 103 102 102 102 101 101 101 101 101 101 101 100 100 100 99 99 98 98 97 96 95 94 94 93 93 93 93 93 93 93 93 94 94 95 95 95 96 96 97 98 98 99 99 100 100 101 101 101 101 102 102 102 103 103 103 103 103 102 102 101 100 100 99 98 98 97 97 96 95 95 94 93 92 91 90 89 88 86 84 83 81 78 76 74 71
103 103 103 103 103 103 103 103 103 102 102 102 102 101 101 101 101 100 100 99 99 98 97 96 95 94 93 93 92 92 92 92 93 93 93 93 93 94 94 95 96 96 97 97 98 99 99 100 100 100 100 100 101 101 101 101 101 101 101 100 99 99 99 98 97 96 96 95 94 94 93 93 92 91 90 89 88 87 85 83 82 80 78 75 73 71
103 103 104 104 104 104 104 104 104 104 103 103 103 103 103 103 102 102 102 101 101 100 99 98 97 96 96 95 94 94 93 93 92 92 92 92 92 92 92 93 94 94 94 95 96 96 97 98 98 99 99 99 99 99 99 99 99 99 99 98 98 98 98 97 96 95 95 94 94 93 92 92 91 90 89 88 87 86 85 83 81 79 77 75 73 70
102 103 103 104 104 104 105 105 105 105 104 104 104 104 104 104 104 103 103 103 102 102 101 100 100 99 98 98 97 96 95 95 94 93 93 92 92 92 92 92 92 93 93 93 94 94 94 95 95 96 97 97 97 97 98 98 98 97 97 97 97 97 97 96 95 95 94 93 93 93 92 91 90 90 89 88 87 86 85 83 81 79 77 74 72 70
102 103 103 103 103 104 104 104 105 105 105 105 106 105 105 105 104 104 104 104 104 103 103 102 101 101 101 100 100 99 98 97 96 95 94 94 93 93 92 92 92 92 92 92 92 92 92 92 93 93 94 94 95 96 96 96 96 96 96 96 96 96 95 95 95 94 93 93 92 92 91 91 90 89 88 88 87 85 84 82 80 78 76 73 71 69
102 102 102 102 103 103 103 104 104 105 105 106 106 106 106 105 105 105 105 105 104 104 104 103 102 102 102 102 102 101 101 100 99 98 97 96 95 95 94 93 93 93 93 93 93 92 91 91 91 92 92 92 92 93 94 95 95 95 95 95 95 95 95 95 95 94 93 92 92 91 91 90 89 88 88 87 86 84 83 81 79 77 75 73 71 69
102 102 102 102 102 102 102 103 103 103 104 105 105 106 106 106 106 105 105 105 105 105 104 104 103 103 103 104 104 103 103 102 102 101 100 99 98 97 96 95 94 94 93 93 93 93 93 92 92 92 91 91 91 92 92 92 93 93 93 94 94 94 94 94 94 93 92 92 91 91 90 89 88 87 86 86 85 83 82 80 78 76 75 73 71 70
100 101 101 101 101 101 101 101 101 102 102 103 104 104 105 105 105 105 105 106 106 106 105 104 104 104 104 105 105 104 104 104 104 103 103 102 101 100 99 97 96 96 95 94 94 94 94 94 94 93 93 92 92 92 91 91 91 91 92 92 92 92 93 93 92 92 92 91 91 90 90 89 88 87 86 85 84 82 81 79 78 76 75 74 73 72
99 99 99 99 100 100 100 100 100 100 101 101 102 102 103 103 104 104 105 105 106 106 106 105 105 105 105 105 105 105 106 106 106 105 105 104 103 102 101 100 99 98 97 96 96 96 96 96 95 95 94 94 94 93 93 92 91 91 91 91 91 91 92 92 92 92 91 91 90 90 89 88 87 86 85 84 83 82 81 80 79 77 76 75 74 73
96 97 97 98 98 98 98 99 99 99 99 99 100 100 101 101 102 103 104 104 105 105 105 105 105 105 106 106 106 106 106 106 107 106 106 106 105 104 103 102 101 100 99 99 98 98 97 97 97 97 96 96 96 95 94 94 93 93 92 92 92 92 92 92 92 92 91 91 90 90 89 88 87 86 85 84 83 82 82 81 80 79 78 77 76 75
94 94 95 95 96 96 97 97 97 97 97 98 98 98 98 99 99 100 101 102 103 104 104 105 105 106 106 106 106 106 106 106 107 107 107 107 106 106 105 104 103 102 102 101 100 99 99 99 98 98 98 98 97 97 96 96 95 95 94 94 94 94 94 93 93 93 92 91 91 90 89 88 87 87 86 85 84 83 83 82 81 80 79 79 78 78
91 91 92 93 93 94 94 95 95 95 96 96 96 97 97 97 97 98 99 99 100 101 102 103 104 105 105 106 106 106 106 107 107 107 108 108 107 107 106 106 105 104 104 103 102 101 101 100 100 100 99 99 99 99 98 98 98 97 97 96 96 96 96 96 95 95 94 93 92 91 90 89 88 87 86 86 85 85 84 83 83 82 81 81 80 80
88 88 89 90 91 91 92 92 93 93 94 94 94 95 95 95 95 95 96 97 98 99 100 101 102 103 104 105 105 105 106 106 107 108 108 108 108 107 107 107 107 106 106 105 104 103 103 102 102 102 101 101 100 100 100 100 100 99 99 99 99 98 98 98 98 97 96 95 94 93 91 90 89 88 87 87 86 86 85 85 85 84 83 83 82 82
Wind_Direction
259 260 260 261 261 262 263 265 265 266 267 267 267 268 268 269 269 270 270 271 271 272 272 273 274 274 274 275 275 275 276 276 276 277 277 278 278 278 278 278 278 278 278 278 278 278 278 278 278 279 279 280 281 282 283 284 284 285 286 287 288 288 289 289 290 290 290 291 292 293 294 295 296 296 296 297 297 298 298 299 300 301 303 305 307 308
257 258 258 258 258 258 259 261 262 263 264 265 265 266 266 267 268 268 269 269 270 270 271 271 272 273 273 273 274 274 275 275 276 276 277 277 277 278 278 278 278 278 278 278 278 278 278 278 279 279 280 280 281 282 283 283 284 284 285 286 286 287 288 288 289 289 289 290 291 292 293 294 295 295 295 296 296 297 297 298 299 300 302 304 305 307
256 256 256 257 257 256 256 257 258 260 261 262 263 264 265 266 266 267 268 268 269 269 270 270 271 272 272 273 273 273 274 275 275 276 276 276 277 277 277 278 278 278 278 278 278 278 278 278 279 279 280 280 281 282 282 283 283 283 284 285 285 286 286 287 287 288 289 290 290 291 292 293 294 294 294 295 295 296 296 297 298 299 301 302 304 306
258 256 256 256 256 256 255 255 255 256 257 259 261 262 263 264 265 266 266 267 268 268 269 269 270 271 271 272 272 273 273 274 274 275 275 276 276 276 277 277 277 277 277 277 278 278 278 278 279 279 279 280 281 282 282 282 282 282 283 283 284 285 285 286 286 287 288 289 290 291 292 292 293 293 293 293 294 295 295 296 297 298 300 301 303 304
261 259 257 256 256 256 257 256 256 255 255 256 258 259 261 262 263 264 265 266 267 267 268 268 269 269 270 271 271 272 272 273 273 274 274 275 275 276 276 276 276 276 277 277 277 277 278 278 278 279 279 280 280 281 281 281 281 281 282 282 283 284 284 285 285 286 287 288 289 290 291 291 292 292 292 292 293 293 294 295 296 297 298 300 301 303
262 261 260 258 257 257 257 258 258 257 256 256 256 257 258 259 261 262 263 264 265 266 267 268 268 268 269 269 270 270 271 271 272 273 273 274 274 275 275 275 275 276 276 276 276 277 277 278 278 278 279 279 279 280 280 280 280 280 281 281 282 283 283 284 285 285 286 287 288 289 289 290 290 290 291 291 292 292 293 294 295 296 297 299 300 302
263 262 262 261 259 258 258 258 258 259 258 258 257 257 257 257 258 260 261 262 264 265 266 267 267 268 268 268 268 269 270 270 271 271 272 272 273 273 274 274 274 275 275 275 276 276 277 277 277 277 278 278 278 279 279 279 279 279 279 280 281 282 283 283 284 284 285 286 287 287 288 288 289 289 289 290 291 291 292 293 294 295 296 297 299 300
262 262 262 262 261 260 259 258 258 258 259 259 259 259 259 258 258 258 259 260 262 263 264 265 266 267 267 267 267 268 268 269 270 270 271 271 272 272 272 273 273 274 274 275 275 276 276 277 277 277 277 277 277 277 278 278 278 278 278 279 280 281 282 282 283 283 284 285 285 286 287 287 287 288 288 289 289 290 291 292 293 294 295 296 297 299
262 262 262 262 262 262 261 260 260 259 258 259 259 260 260 260 259 259 258 259 259 261 262 263 265 265 266 266 267 267 268 268 269 269 270 270 270 271 271 271 272 272 273 274 274 275 275 276 276 276 276 276 276 276 276 276 277 277 278 278 279 280 281 281 282 282 283 284 284 285 285 286 286 286 287 288 288 289 290 291 292 292 294 295 296 298
262 262 262 262 262 262 262 262 261 260 259 259 259 259 260 261 261 261 260 259 259 259 260 261 262 264 265 266 266 267 267 268 268 269 269 269 270 270 270 270 271 271 272 273 273 274 274 275 275 275 275 275 276 276 276 276 276 276 277 278 278 279 280 280 281 281 282 282 283 284 284 284 284 285 286 287 287 288 289 290 290 291 292 294 295 297
261 261 261 261 261 261 261 261 261 261 261 260 260 259 259 260 260 261 261 260 260 259 259 259 260 261 263 264 265 266 267 267 268 268 268 269 269 269 269 270 270 271 271 272 272 273 273 274 274 274 274 275 275 275 275 275 275 276 276 277 278 278 279 279 280 280 281 281 282 282 283 283 283 284 285 286 286 287 288 289 289 290 291 293 294 296
260 260 260 261 261 261 261 261 261 261 261 261 260 260 259 259 259 259 260 261 261 260 260 259 259 259 261 262 264 265 266 267 267 267 268 268 268 269 269 269 270 270 271 271 272 272 272 272 273 273 273 274 274 274 274 275 275 275 276 276 277 277 278 278 279 279 280 280 280 281 281 282 282 283 284 285 285 286 287 287 288 289 290 292 293 295
261 261 261 260 260 260 260 260 261 261 260 260 260 260 260 259 259 259 259 259 260 261 261 260 260 259 259 260 262 263 264 265 266 267 267 267 268 268 268 269 269 270 270 271 271 272 272 272 272 272 273 273 273 274 274 274 274 275 275 275 276 276 277 277 278 278 278 279 279 280 280 281 281 282 283 284 285 285 286 286 287 288 289 291 292 294
261 261 261 261 261 261 260 260 260 260 260 260 260 260 260 260 260 259 258 258 259 260 260 261 261 260 260 260 261 261 262 264 265 265 266 267 267 267 268 268 269 270 270 271 271 271 271 271 271 272 272 272 273 273 273 273 274 274 274 275 275 275 276 276 277 277 278 278 278 279 279 280 281 281 282 283 284 284 285 285 286 287 288 290 291 292
262 262 262 262 261 261 261 261 260 260 260 260 260 261 261 260 260 259 259 258 258 259 259 260 260 261 261 261 261 261 261 262 263 264 265 266 266 267 267 268 269 269 270 270 271 271 271 271 271 271 271 271 272 272 272 273 273 273 273 274 274 274 275 275 276 276 277 277 278 278 279 279 280 281 282 282 283 283 284 285 285 286 288 289 290 291
262 262 262 262 262 262 262 262 261 261 260 260 260 260 260 260 260 260 259 259 259 259 259 259 259 260 260 261 261 261 261 261 262 263 264 265 266 266 267 268 268 269 270 270 270 270 270 270 270 270 271 271 271 271 272 272 272 272 273 273 273 273 274 274 275 275 276 277 277 278 278 279 279 280 281 282 282 283 283 284 285 286 287 288 289 290
263 263 263 263 263 263 263 263 262 262 261 261 261 260 260 260 260 260 260 260 259 259 259 259 259 259 260 260 261 261 261 261 261 261 262 263 265 266 267 268 268 269 270 270 270 270 270 270 270 270 270 270 271 271 271 272 272 272 272 272 273 273 273 274 274 275 275 276 277 277 278 278 279 280 280 281 282 282 283 283 284 285 286 287 288 289
264 264 264 263 263 263 263 263 263 263 263 262 262 261 261 262 262 261 261 261 260 260 260 259 259 259 260 260 260 261 261 261 261 261 261 262 263 264 266 267 268 268 269 270 270 270 270 270 270 270 270 270 271 271 271 271 272 272 272 272 272 272 273 273 274 274 275 275 276 277 277 278 278 279 280 280 281 281 282 283 283 284 285 286 287 288
264 265 265 264 264 264 264 264 264 265 265 264 264 263 263 263 263 263 263 262 262 261 261 261 260 260 260 260 261 261 261 261 261 261 261 261 261 262 264 265 266 267 268 268 269 269 269 269 269 269 270 270 270 270 271 271 271 271 271 271 271 272 272 273 273 274 275 275 276 276 277 277 278 278 279 280 280 281 281 282 283 283 284 285 286 287
265 265 265 265 265 265 264 265 265 266 267 267 266 265 264 264 264 264 264 264 264 263 263 262 262 262 261 261 262 262 262 262 261 261 261 261 261 261 262 262 263 264 265 266 267 267 268 268 268 269 269 269 269 270 270 270 270 270 270 270 271 271 272 272 273 274 274 275 275 276 276 277 277 278 278 279 280 280 281 281 282 283 283 284 285 285
265 265 265 265 265 265 264 265 266 267 267 268 267 267 266 265 265 265 265 265 265 265 265 264 264 263 263 263 263 263 263 262 262 262 262 262 262 262 261 261 261 262 263 264 265 265 266 266 267 267 268 268 268 268 269 269 269 269 269 269 270 270 271 272 272 273 274 274 275 275 275 276 276 277 277 278 279 279 280 280 281 282 282 283 283 284
264 264 265 265 264 264 264 265 265 266 267 268 268 267 266 266 265 265 265 265 265 265 265 265 265 264 264 264 263 263 263 263 263 262 262 262 262 262 262 261 261 260 261 262 262 263 264 265 265 266 266 267 267 267 267 268 268 268 268 269 269 270 270 271 272 272 273 273 274 274 274 275 275 276 276 277 278 278 279 279 280 280 281 282 282 283
264 264 264 264 264 264 264 264 265 265 266 267 267 267 267 266 265 265 264 264 264 265 265 265 265 265 264 264 264 263 263 263 263 263 262 262 262 262 262 261 260 260 260 260 261 261 262 263 264 264 265 265 266 266 266 266 267 267 267 268 268 269 270 270 271 271 272 272 272 273 273 274 274 275 275 276 276 277 278 278 279 279 280 281 281 282
264 264 264 264 264 264 264 264 264 265 265 266 266 266 266 266 266 265 265 264 264 264 264 264 264 264 264 263 263 263 263 263 263 262 262 262 262 262 262 261 261 260 259 260 260 260 261 261 262 263 263 264 264 265 265 265 266 266 267 267 268 268 269 269 270 270 271 271 271 272 272 272 273 273 274 275 275 276 277 277 278 278 279 280 281 282
264 264 264 264 264 264 264 264 264 265 265 265 266 266 266 266 266 266 265 265 264 263 263 263 263 263 263 263 263 262 262 262 262 262 262 262 262 262 262 261 261 260 260 260 260 259 259 260 261 261 262 262 263 263 264 264 265 265 266 266 267 267 268 268 269 269 270 270 270 271 271 271 272 272 273 273 274 275 275 276 277 277 278 279 280 281
265 265 265 265 265 265 265 265 265 265 265 265 265 265 266 266 266 266 265 265 264 264 263 263 262 262 262 262 262 262 262 262 262 261 261 262 262 262 262 262 261 260 260 260 260 259 259 259 260 260 261 261 262 262 263 263 264 264 265 265 266 266 267 267 268 268 268 269 269 270 270 270 271 271 272 272 273 274 274 275 276 277 277 278 279 280
265 266 266 266 266 266 266 266 266 266 266 266 266 265 265 265 265 265 265 265 265 264 264 263 263 263 262 262 262 262 262 261 261 261 261 261 261 261 262 261 261 261 260 260 260 260 259 259 259 259 260 260 261 261 261 262 262 263 263 264 264 265 265 266 266 267 267 268 268 268 269 269 270 270 271 272 272 273 274 274 275 276 277 277 278 279
266 266 266 266 266 266 266 266 266 266 267 266 266 266 266 265 265 264 264 265 265 265 264 264 263 263 263 262 262 262 262 261 261 261 261 261 261 261 261 261 261 261 261 260 260 260 260 259 259 259 260 260 260 260 260 261 261 262 262 263 263 264 264 265 265 266 266 266 267 267 268 268 269 269 270 271 271 272 273 274 274 275 276 277 278 279
267 266 266 266 266 266 266 266 267 267 267 267 267 267 266 266 265 265 265 265 265 264 264 264 263 263 263 263 262 262 262 261 261 261 260 260 260 260 261 261 261 261 261 261 261 260 260 260 260 260 260 260 260 260 260 260 260 260 261 261 262 262 263 263 264 264 265 265 266 266 266 267 268 268 269 270 271 271 272 273 273 274 275 276 277 278
267 267 267 267 266 266 266 266 266 266 267 267 267 267 267 266 266 266 266 265 265 264 264 264 263 263 263 262 262 262 261 261 261 261 260 260 260 260 260 260 260 260 260 260 260 260 260 260 260 260 260 260 260 260 260 260 260 260 260 260 261 261 262 262 263 263 264 264 264 265 266 266 267 268 268 269 270 270 271 272 272 273 274 275 276 277
268 268 267 267 267 267 267 266 266 266 266 266 266 266 266 266 266 266 266 266 265 265 265 264 264 263 263 262 262 262 261 261 261 260 260 260 259 260 260 260 260 260 260 260 260 260 260 260 260 260 260 260 260 260 261 261 261 260 260 260 260 260 261 261 261 262 262 263 264 264 265 265 266 267 268 268 269 270 270 271 271 272 273 274 275 276
269 268 268 268 267 267 267 266 266 266 266 266 266 266 266 266 266 266 266 266 266 266 265 265 264 264 263 263 262 262 261 261 261 260 260 259 259 259 259 259 259 260 260 260 260 260 260 260 260 260 260 260 260 260 261 261 261 261 261 260 260 260 260 260 261 261 262 262 263 263 264 265 265 266 267 267 268 269 269 270 271 271 272 273 274 276
269 269 268 268 268 267 267 266 266 266 265 265 265 265 265 265 265 265 265 265 265 265 265 265 265 265 264 263 263 262 262 262 261 260 259 259 259 259 259 259 259 259 259 259 259 259 260 260 260 260 260 260 260 260 260 261 261 261 261 261 261 260 260 260 260 261 261 262 262 263 264 264 265 265 266 267 267 268 269 269 270 271 272 273 274 276
269 269 268 268 268 267 267 267 266 266 265 265 265 265 264 264 264 264 264 264 264 264 264 265 265 265 264 264 264 263 263 262 262 261 260 259 258 258 258 258 258 258 259 259 259 259 259 259 259 259 259 260 260 260 260 261 261 261 261 262 261 261 261 261 261 261 261 262 262 263 263 264 264 265 266 266 267 268 268 269 270 271 272 273 275 276
268 268 268 268 267 267 267 267 266 266 266 265 265 264 264 264 263 263 263 263 263 263 263 264 264 264 264 264 264 263 263 263 262 262 261 260 259 259 258 258 258 258 258 258 258 258 258 258 258 259 259 259 259 260 260 260 261 261 261 262 262 262 262 262 262 262 262 262 263 263 263 264 264 265 266 266 267 268 269 270 271 272 273 274 275 276
268 268 268 267 267 267 267 266 266 266 266 265 265 264 264 264 263 263 263 262 262 262 262 263 263 263 263 263 263 263 263 263 262 262 261 261 260 259 259 258 258 258 258 258 258 258 258 258 258 258 258 258 259 259 259 260 260 261 261 262 262 263 263 263 263 263 263 264 264 264 264 265 265 266 267 267 268 269 270 271 272 273 274 275 276 277
268 267 267 267 267 266 266 266 266 265 265 265 265 264 264 264 263 263 263 262 262 262 262 262 262 262 262 262 262 262 262 262 262 262 261 261 260 260 259 259 258 258 258 257 257 258 257 257 257 257 257 258 258 258 259 259 260 260 260 261 261 262 263 263 264 264 264 265 265 265 266 266 267 267 268 268 269 270 271 272 273 274 275 275 276 277
267 267 267 266 266 266 265 265 265 265 265 264 264 264 264 264 263 263 263 262 262 262 261 261 261 261 261 261 261 261 261 261 261 261 261 260 260 260 259 259 258 258 258 257 257 257 257 257 257 257 257 257 257 257 258 258 259 259 259 260 260 261 262 262 263 264 264 265 265 266 266 267 267 268 269 269 270 271 271 272 273 274 274 275 276 276
267 266 266 266 265 265 265 264 264 264 264 264 264 264 263 263 263 263 263 262 262 262 261 261 261 261 261 260 260 260 260 260 260 260 260 260 260 259 259 259 258 258 258 257 257 257 257 257 257 257 257 257 257 257 257 257 258 258 258 259 259 260 260 261 261 262 263 264 264 265 266 266 267 268 268 269 270 270 271 272 272 273 273 274 274 274
266 266 265 265 265 265 264 264 264 264 263 263 263 263 263 263 262 262 262 262 262 262 261 261 261 261 260 260 260 260 259 259 259 259 259 259 259 259 259 258 258 258 258 257 257 257 257 257 256 256 256 256 256 256 256 257 257 257 257 257 258 258 259 259 260 260 261 262 263 263 264 265 266 266 267 268 269 269 270 271 271 272 272 273 273 273
265 265 265 265 264 264 264 264 264 263 263 263 262 262 262 262 262 261 261 261 261 261 261 261 261 261 260 260 260 259 259 259 258 258 258 258 258 258 258 258 258 258 257 257 257 257 256 256 256 256 256 256 256 256 256 256 256 256 256 256 256 257 257 258 258 259 259 260 261 262 262 263 264 265 266 266 267 268 269 269 270 271 271 272 272 272
266 265 265 264 264 264 264 263 263 263 263 262 262 262 261 261 261 261 261 261 260 260 260 260 260 260 260 260 260 259 259 259 258 258 258 257 257 257 257 257 257 257 257 257 257 257 256 256 256 256 255 255 255 255 255 255 255 255 255 255 256 256 256 256 257 257 258 258 259 260 261 262 262 263 264 265 266 267 267 268 269 269 270 270 270 270
266 266 265 264 264 263 263 263 263 262 262 262 262 262 261 261 261 260 260 260 260 260 259 259 259 259 259 259 259 259 259 258 258 258 257 257 257 256 256 256 256 256 257 257 257 257 257 256 256 256 255 255 255 254 254 254 254 254 254 254 255 255 255 255 256 256 256 257 258 258 259 260 261 262 263 264 265 265 266 267 268 268 269 269 269 268
267 266 266 265 264 264 263 262 262 262 262 261 261 261 261 261 261 260 260 260 259 259 259 258 258 258 258 258 258 258 258 258 258 257 257 256 256 256 255 255 255 255 255 256 256 256 257 257 256 256 255 255 254 253 253 254 253 253 253 254 254 254 254 254 255 255 255 256 256 257 258 259 259 260 261 262 263 264 265 266 266 267 267 267 267 266
267 267 266 265 265 264 263 263 262 261 261 261 261 261 261 260 260 260 260 259 259 259 258 258 258 257 257 257 257 257 257 257 257 257 256 256 256 255 255 255 254 254 254 254 255 255 256 256 256 256 256 255 255 254 254 253 253 253 253 253 253 253 254 254 254 254 254 255 255 256 256 257 258 259 260 261 262 263 263 264 265 265 265 265 265 264
267 267 266 266 265 264 264 263 262 262 261 261 260 260 260 260 260 259 259 259 259 259 258 258 257 257 257 256 256 256 256 256 256 256 256 256 255 255 255 254 254 254 253 253 253 253 254 254 255 255 255 255 255 255 255 254 254 253 253 253 253 253 253 254 254 254 254 254 254 255 255 256 257 257 258 259 260 261 262 262 263 263 263 263 263 262
266 266 266 265 265 265 264 264 263 262 262 261 260 260 259 259 259 259 259 258 258 258 258 258 257 257 256 256 256 255 255 255 255 255 255 255 255 254 254 254 253 253 253 252 252 252 252 252 253 253 253 254 254 255 255 254 254 254 254 253 253 253 253 253 253 253 253 253 254 254 254 255 255 256 256 257 258 259 260 260 260 261 261 261 261 260
266 266 265 265 265 264 264 264 263 263 262 261 261 260 259 259 258 258 258 258 258 258 257 257 257 257 256 256 255 255 255 255 254 254 254 254 254 254 254 253 253 253 252 252 251 251 251 251 251 251 252 252 253 254 254 254 254 254 254 254 254 253 253 253 253 253 253 253 253 253 253 254 254 254 255 255 256 257 257 258 258 259 259 259 259 259
265 265 265 265 264 264 264 263 263 263 262 262 261 260 260 259 258 258 257 257 257 257 257 256 256 256 256 256 255 255 254 254 254 254 254 254 253 253 253 253 252 252 252 251 251 251 250 250 250 250 250 250 251 252 252 253 253 253 253 253 253 253 253 253 253 253 253 253 253 253 253 253 253 253 253 254 254 255 255 256 256 257 257 257 257 257
265 265 265 264 264 264 264 263 263 263 262 262 261 261 260 259 258 258 257 257 256 256 256 255 255 255 255 255 255 255 254 254 254 253 253 253 253 252 252 252 252 252 251 251 250 250 250 249 249 249 249 249 249 249 250 250 251 251 251 252 252 252 252 253 253 253 253 253 253 253 252 252 252 252 252 252 252 253 254 254 255 255 256 256 256 256
265 265 264 264 264 263 263 263 263 262 262 262 261 261 260 260 259 258 257 257 256 255 255 255 254 254 254 254 254 254 254 253 253 253 253 252 252 252 252 252 251 251 251 250 250 250 249 249 248 248 248 248 248 248 248 248 249 249 249 250 250 250 251 251 252 253 253 253 253 253 252 252 251 251 251 251 251 252 252 253 253 254 254 255 255 255
Height
10608 10608 10609 10611 10612 10611 10611 10611 10611 10610 10610 10611 10612 10612 10611 10612 10613 10613 10615 10616 10616 10616 10616 10616 10617 10618 10619 10619 10619 10619 10620 10620 10621 10622 10623 10624 10625 10626 10628 10629 10631 10632 10633 10634 10635 10636 10636 10637 10638 10638 10637 10636 10636 10636 10635 10635 10635 10635 10635 10634 10634 10634 10634 10634 10633 10633 10633 10632 10631 10631 10631 10631 10631 10631 10630 10630 10629 10629 10629 10628 10627 10626 10624 10624 10623 10622
10602 10602 10604 10605 10607 10608 10607 10607 10607 10606 10606 10606 10606 10606 10607 10607 10607 10608 10609 10611 10611 10611 10612 10612 10612 10613 10613 10614 10614 10615 10614 10615 10616 10616 10618 10618 10619 10621 10622 10624 10625 10626 10627 10628 10629 10630 10631 10632 10632 10633 10632 10631 10631 10631 10631 10630 10630 10630 10630 10630 10630 10630 10629 10629 10629 10629 10631 10631 10629 10628 10628 10628 10628 10626 10627 10626 10626 10626 10625 10624 10624 10623 10622 10621 10620 10619
10596 10596 10597 10598 10599 10601 10602 10603 10603 10603 10602 10601 10601 10602 10602 10602 10602 10603 10604 10604 10605 10606 10606 10607 10607 10608 10608 10608 10609 10610 10609 10609 10610 10611 10611 10613 10614 10614 10616 10618 10619 10621 10622 10623 10624 10624 10626 10626 10627 10627 10627 10626 10626 10626 10626 10625 10625 10625 10625 10626 10626 10626 10626 10626 10625 10625 10626 10626 10627 10628 10626 10626 10624 10623 10623 10623 10622 10622 10622 10621 10620 10619 10618 10618 10617 10616
10591 10591 10590 10591 10591 10593 10594 10596 10597 10598 10598 10597 10597 10597 10597 10597 10597 10598 10598 10599 10599 10599 10601 10601 10602 10602 10603 10603 10603 10604 10604 10604 10604 10604 10606 10607 10608 10609 10610 10611 10613 10614 10616 10617 10618 10619 10619 10621 10621 10621 10621 10621 10621 10621 10620 10620 10620 10620 10620 10621 10621 10621 10621 10621 10621 10621 10620 10619 10620 10622 10623 10623 10622 10621 10619 10619 10619 10618 10618 10618 10617 10616 10615 10614 10613 10613
10582 10584 10584 10585 10585 10584 10584 10586 10589 10591 10591 10592 10592 10592 10592 10592 10592 10592 10593 10593 10594 10594 10594 10595 10596 10597 10597 10598 10598 10598 10599 10599 10599 10599 10599 10601 10602 10603 10604 10606 10607 10608 10610 10611 10613 10613 10614 10615 10616 10616 10616 10616 10616 10616 10616 10615 10615 10615 10616 10616 10616 10616 10617 10617 10618 10617 10616 10616 10616 10617 10618 10618 10618 10618 10618 10616 10616 10616 10614 10614 10613 10613 10611 10611 10610 10609
10572 10574 10576 10578 10578 10578 10577 10578 10580 10581 10583 10584 10585 10586 10586 10586 10586 10587 10587 10588 10588 10588 10588 10589 10590 10591 10592 10593 10593 10593 10593 10593 10593 10593 10594 10595 10596 10598 10599 10600 10601 10603 10604 10605 10606 10608 10608 10609 10609 10610 10611 10611 10611 10611 10611 10611 10611 10611 10611 10611 10611 10612 10613 10613 10613 10613 10613 10612 10613 10614 10614 10614 10614 10614 10614 10614 10613 10613 10611 10611 10610 10609 10608 10607 10606 10606
10563 10565 10568 10569 10569 10570 10571 10572 10572 10573 10574 10576 10577 10578 10579 10580 10581 10581 10582 10582 10582 10583 10583 10583 10584 10585 10586 10587 10587 10587 10587 10587 10588 10588 10589 10589 10591 10592 10593 10594 10596 10596 10598 10599 10601 10602 10603 10603 10604 10605 10606 10606 10607 10607 10606 10606 10606 10606 10606 10606 10607 10608 10608 10608 10609 10609 10609 10608 10608 10608 10608 10609 10609 10608 10610 10609 10609 10609 10609 10608 10607 10606 10604 10604 10603 10603
10556 10557 10558 10559 10560 10561 10563 10564 10565 10566 10566 10567 10568 10569 10571 10573 10574 10575 10576 10576 10577 10578 10578 10578 10578 10579 10579 10580 10581 10581 10581 10581 10582 10583 10583 10584 10585 10586 10588 10589 10590 10591 10592 10593 10594 10596 10597 10598 10599 10599 10600 10601 10602 10602 10602 10602 10601 10601 10601 10602 10602 10603 10603 10604 10604 10604 10604 10604 10604 10603 10603 10604 10605 10605 10605 10604 10604 10604 10605 10604 10604 10603 10602 10600 10599 10599
10547 10549 10550 10551 10551 10552 10554 10556 10557 10558 10559 10559 10559 10559 10561 10563 10566 10568 10569 10571 10571 10572 10573 10573 10573 10573 10573 10573 10574 10574 10574 10575 10576 10577 10578 10578 10579 10581 10582 10583 10584 10586 10586 10588 10589 10590 10591 10592 10593 10593 10594 10596 10596 10597 10598 10598 10597 10597 10597 10597 10598 10598 10598 10599 10599 10600 10600 10600 10599 10599 10599 10600 10601 10602 10600 10600 10600 10601 10601 10601 10601 10599 10599 10597 10596 10595
10536 10539 10541 10542 10543 10544 10545 10546 10547 10549 10551 10551 10551 10552 10553 10555 10557 10559 10561 10563 10564 10566 10566 10567 10567 10567 10566 10567 10567 10568 10568 10569 10570 10571 10572 10573 10573 10574 10576 10578 10579 10579 10581 10582 10583 10584 10586 10587 10587 10588 10588 10589 10591 10591 10592 10592 10592 10592 10593 10593 10593 10593 10593 10594 10594 10595 10596 10595 10595 10595 10595 10595 10597 10598 10596 10596 10596 10596 10597 10597 10596 10596 10594 10593 10592 10591
10528 10529 10531 10533 10534 10536 10538 10538 10538 10539 10542 10543 10543 10544 10546 10548 10549 10551 10553 10554 10556 10558 10559 10561 10561 10562 10561 10561 10561 10561 10562 10563 10564 10565 10566 10567 10568 10568 10569 10571 10572 10573 10575 10576 10578 10579 10580 10581 10581 10582 10583 10583 10584 10585 10586 10586 10587 10587 10587 10588 10588 10588 10588 10589 10589 10590 10591 10591 10591 10591 10591 10590 10592 10593 10593 10593 10592 10592 10593 10593 10592 10591 10590 10589 10588 10588
10520 10522 10524 10525 10526 10528 10529 10530 10531 10531 10533 10534 10535 10536 10537 10539 10541 10543 10544 10546 10547 10549 10551 10553 10554 10556 10556 10556 10555 10555 10556 10556 10557 10558 10559 10560 10561 10562 10563 10564 10565 10566 10568 10569 10571 10573 10574 10574 10576 10576 10577 10578 10578 10579 10580 10581 10581 10581 10582 10583 10583 10583 10583 10584 10584 10585 10586 10586 10586 10586 10586 10586 10586 10587 10588 10589 10588 10587 10588 10588 10588 10586 10586 10584 10584 10584
10513 10514 10516 10516 10517 10518 10519 10521 10523 10524 10526 10527 10528 10528 10528 10531 10534 10536 10538 10538 10539 10541 10543 10544 10546 10548 10550 10551 10550 10549 10549 10549 10550 10551 10553 10554 10554 10555 10556 10556 10558 10559 10561 10563 10564 10565 10567 10568 10569 10569 10571 10571 10572 10573 10574 10574 10575 10576 10576 10577 10577 10578 10578 10578 10579 10579 10580 10580 10581 10581 10581 10581 10581 10582 10582 10583 10583 10583 10583 10583 10583 10582 10581 10581 10580 10579
10503 10505 10507 10508 10508 10509 10511 10513 10515 10516 10518 10519 10520 10522 10523 10524 10528 10531 10532 10532 10532 10533 10534 10536 10538 10539 10542 10543 10544 10544 10543 10543 10543 10544 10546 10546 10548 10548 10549 10550 10550 10552 10554 10556 10557 10558 10559 10561 10562 10563 10564 10565 10566 10567 10568 10568 10569 10569 10571 10571 10572 10572 10573 10573 10573 10574 10574 10575 10575 10576 10576 10576 10577 10577 10578 10578 10578 10578 10578 10579 10579 10578 10578 10577 10576 10576
10494 10496 10498 10499 10499 10501 10503 10505 10506 10508 10509 10510 10511 10513 10513 10515 10518 10521 10524 10525 10526 10527 10529 10530 10530 10531 10533 10534 10536 10536 10537 10536 10536 10537 10538 10539 10540 10541 10543 10543 10543 10544 10547 10549 10549 10551 10553 10554 10555 10556 10557 10558 10559 10560 10561 10562 10563 10564 10564 10565 10566 10566 10567 10568 10568 10568 10569 10569 10570 10571 10571 10571 10572 10572 10573 10573 10573 10574 10574 10573 10574 10574 10573 10573 10573 10572
10486 10488 10490 10491 10491 10493 10494 10495 10497 10499 10501 10503 10504 10504 10504 10506 10508 10510 10513 10514 10516 10518 10522 10523 10524 10524 10524 10526 10528 10529 10530 10530 10529 10530 10531 10531 10532 10533 10535 10536 10536 10537 10539 10541 10543 10543 10545 10547 10548 10549 10551 10551 10553 10554 10555 10556 10557 10558 10558 10559 10560 10561 10561 10561 10562 10563 10563 10564 10564 10565 10566 10566 10566 10567 10568 10568 10568 10569 10569 10568 10569 10569 10569 10569 10569 10568
10479 10480 10481 10483 10484 10485 10486 10486 10487 10489 10491 10494 10496 10496 10496 10498 10499 10501 10504 10506 10507 10509 10511 10514 10517 10518 10518 10518 10519 10521 10523 10524 10524 10523 10525 10526 10526 10526 10528 10529 10529 10529 10531 10533 10534 10536 10538 10539 10541 10542 10543 10544 10546 10547 10548 10549 10550 10551 10552 10553 10554 10554 10555 10556 10556 10556 10558 10558 10559 10559 10560 10561 10561 10562 10562 10563 10563 10564 10564 10564 10564 10564 10564 10564 10564 10564
10471 10472 10474 10476 10477 10479 10479 10479 10478 10478 10480 10485 10488 10488 10488 10489 10491 10493 10496 10497 10499 10501 10502 10504 10507 10510 10511 10512 10512 10513 10516 10519 10518 10518 10518 10519 10519 10521 10523 10523 10523 10523 10524 10526 10527 10528 10530 10532 10533 10535 10536 10538 10539 10540 10541 10543 10544 10544 10546 10546 10547 10548 10549 10549 10550 10551 10551 10553 10553 10554 10554 10555 10556 10556 10556 10557 10558 10558 10559 10559 10559 10559 10559 10559 10559 10559
10462 10464 10466 10468 10469 10471 10473 10472 10469 10468 10469 10474 10479 10481 10482 10482 10483 10484 10486 10488 10489 10492 10494 10496 10498 10500 10503 10505 10506 10507 10510 10513 10513 10512 10511 10512 10513 10514 10517 10519 10518 10518 10518 10519 10520 10521 10523 10524 10526 10528 10530 10531 10533 10534 10535 10536 10537 10538 10539 10540 10541 10541 10543 10543 10544 10544 10546 10546 10547 10548 10549 10549 10550 10551 10551 10552 10553 10553 10554 10554 10554 10555 10555 10555 10555 10555
10454 10456 10457 10458 10461 10463 10464 10463 10460 10459 10459 10464 10469 10474 10475 10475 10476 10476 10478 10478 10480 10482 10484 10488 10489 10491 10493 10494 10496 10498 10502 10505 10506 10505 10504 10504 10506 10508 10511 10513 10514 10513 10512 10513 10514 10516 10517 10518 10520 10521 10524 10525 10526 10528 10529 10530 10531 10532 10533 10534 10534 10535 10536 10537 10538 10538 10539 10540 10541 10542 10543 10544 10544 10545 10546 10546 10547 10548 10548 10549 10549 10551 10551 10551 10551 10551
10446 10446 10447 10449 10453 10454 10454 10453 10451 10451 10451 10453 10458 10463 10465 10467 10468 10469 10469 10469 10471 10473 10476 10478 10479 10481 10484 10486 10488 10489 10492 10496 10498 10496 10495 10496 10498 10500 10503 10506 10508 10508 10507 10508 10509 10511 10512 10513 10514 10515 10517 10518 10519 10521 10522 10523 10524 10526 10526 10528 10529 10529 10530 10531 10531 10533 10533 10534 10535 10536 10537 10538 10539 10539 10540 10541 10541 10542 10543 10544 10544 10545 10546 10546 10546 10546
10437 10437 10438 10441 10443 10444 10443 10443 10443 10443 10443 10444 10447 10449 10453 10456 10459 10460 10460 10461 10463 10465 10466 10468 10470 10472 10475 10478 10479 10480 10483 10486 10487 10487 10487 10489 10489 10491 10494 10499 10501 10501 10501 10501 10503 10505 10508 10508 10508 10509 10510 10511 10513 10514 10516 10517 10518 10519 10520 10521 10523 10523 10524 10525 10526 10527 10528 10529 10529 10531 10531 10533 10533 10534 10534 10535 10536 10537 10538 10539 10539 10541 10541 10541 10542 10542
10428 10428 10429 10431 10432 10433 10433 10433 10433 10433 10434 10435 10436 10438 10440 10444 10448 10449 10451 10453 10455 10456 10458 10459 10461 10463 10466 10468 10469 10471 10473 10476 10478 10479 10480 10480 10479 10481 10484 10491 10494 10495 10494 10494 10497 10499 10501 10502 10503 10503 10503 10504 10506 10508 10509 10511 10512 10513 10514 10515 10516 10517 10518 10519 10520 10521 10522 10523 10524 10525 10526 10527 10528 10529 10529 10530 10531 10532 10533 10534 10534 10536 10536 10536 10537 10538
10419 10419 10421 10422 10423 10423 10424 10424 10424 10424 10425 10426 10427 10428 10430 10433 10436 10438 10440 10443 10445 10448 10449 10451 10453 10454 10456 10458 10459 10461 10463 10466 10468 10471 10471 10471 10470 10472 10476 10482 10486 10486 10486 10487 10490 10493 10494 10495 10495 10496 10497 10498 10500 10501 10503 10504 10506 10506 10508 10509 10510 10511 10512 10513 10514 10515 10516 10517 10518 10519 10520 10521 10522 10523 10524 10524 10526 10526 10528 10528 10529 10530 10531 10531 10533 10533
10409 10410 10411 10412 10413 10413 10414 10415 10415 10416 10416 10418 10418 10419 10421 10423 10424 10427 10429 10432 10435 10437 10439 10442 10444 10444 10444 10447 10450 10453 10453 10456 10459 10462 10463 10461 10461 10464 10468 10473 10476 10478 10478 10479 10482 10486 10488 10488 10488 10489 10491 10492 10493 10495 10496 10498 10499 10500 10501 10503 10504 10505 10506 10507 10508 10509 10510 10511 10513 10513 10514 10516 10516 10518 10518 10519 10520 10521 10523 10523 10524 10525 10526 10527 10527 10528
10401 10401 10401 10402 10403 10403 10404 10405 10406 10406 10408 10409 10410 10411 10413 10414 10416 10418 10420 10422 10424 10426 10429 10431 10433 10434 10435 10439 10441 10443 10444 10446 10449 10453 10454 10453 10453 10454 10457 10462 10466 10468 10469 10470 10473 10477 10479 10479 10480 10481 10483 10485 10486 10488 10490 10491 10493 10494 10495 10496 10498 10499 10500 10501 10502 10503 10504 10505 10506 10508 10508 10509 10511 10511 10513 10514 10515 10516 10517 10518 10519 10520 10521 10522 10523 10523
10391 10392 10392 10393 10393 10393 10394 10395 10396 10397 10398 10399 10401 10403 10404 10406 10408 10409 10410 10410 10412 10415 10419 10421 10422 10424 10426 10429 10432 10433 10434 10438 10440 10442 10444 10446 10446 10446 10447 10451 10456 10459 10460 10461 10464 10468 10471 10471 10472 10473 10475 10477 10479 10481 10483 10485 10486 10488 10489 10490 10491 10493 10494 10495 10496 10497 10498 10499 10500 10501 10503 10504 10504 10506 10507 10508 10509 10511 10512 10513 10514 10515 10516 10518 10518 10518
10382 10383 10383 10383 10383 10384 10385 10386 10386 10387 10388 10389 10390 10392 10395 10398 10399 10399 10398 10398 10401 10406 10409 10411 10412 10414 10417 10419 10421 10423 10426 10429 10431 10431 10434 10437 10438 10437 10437 10441 10446 10449 10451 10451 10453 10457 10461 10463 10464 10465 10467 10468 10471 10473 10476 10478 10480 10481 10483 10484 10485 10486 10488 10489 10490 10491 10492 10493 10494 10495 10496 10498 10499 10500 10501 10503 10504 10505 10506 10508 10509 10510 10512 10513 10513 10514
10373 10373 10373 10373 10374 10374 10376 10376 10376 10378 10378 10379 10380 10381 10384 10386 10388 10388 10387 10389 10393 10397 10398 10399 10401 10404 10407 10409 10411 10414 10418 10419 10420 10422 10425 10428 10428 10427 10428 10433 10437 10438 10440 10441 10443 10447 10451 10454 10456 10458 10459 10459 10461 10464 10466 10469 10472 10474 10476 10478 10479 10480 10481 10483 10484 10484 10486 10487 10488 10489 10491 10491 10493 10494 10495 10496 10498 10499 10501 10503 10504 10506 10507 10508 10508 10509
10362 10363 10363 10363 10364 10364 10366 10366 10367 10368 10368 10369 10370 10371 10372 10374 10375 10376 10377 10380 10384 10386 10386 10388 10391 10394 10397 10399 10402 10405 10407 10408 10410 10413 10418 10420 10418 10416 10419 10424 10427 10428 10430 10433 10435 10437 10439 10443 10446 10449 10451 10451 10453 10454 10456 10459 10463 10466 10468 10470 10472 10473 10474 10476 10477 10478 10479 10480 10481 10483 10484 10486 10487 10488 10489 10491 10493 10494 10496 10497 10499 10501 10502 10503 10503 10504
10351 10352 10353 10353 10354 10355 10356 10356 10357 10358 10359 10359 10361 10361 10362 10364 10364 10365 10366 10369 10371 10373 10374 10377 10380 10383 10386 10390 10393 10394 10395 10398 10401 10405 10409 10411 10409 10407 10411 10416 10417 10417 10421 10424 10426 10428 10429 10432 10436 10440 10443 10444 10445 10446 10447 10449 10452 10456 10459 10462 10464 10466 10468 10469 10470 10471 10473 10473 10475 10476 10478 10479 10481 10482 10483 10485 10486 10488 10490 10491 10493 10494 10496 10497 10498 10499
10341 10342 10343 10343 10343 10345 10346 10346 10347 10348 10349 10349 10350 10351 10353 10354 10354 10355 10356 10358 10359 10360 10362 10366 10369 10371 10375 10379 10381 10383 10384 10388 10391 10396 10400 10401 10399 10398 10403 10406 10408 10408 10411 10414 10417 10418 10420 10423 10426 10429 10434 10436 10438 10438 10439 10441 10443 10445 10448 10451 10454 10457 10459 10461 10463 10464 10465 10466 10468 10469 10471 10473 10474 10476 10478 10479 10480 10482 10484 10486 10487 10489 10490 10491 10493 10493
10332 10332 10333 10333 10334 10335 10336 10336 10337 10338 10339 10339 10340 10341 10343 10344 10345 10346 10347 10348 10349 10350 10352 10354 10356 10359 10363 10367 10369 10372 10374 10378 10381 10385 10388 10390 10390 10391 10393 10397 10399 10400 10402 10404 10407 10409 10412 10414 10417 10420 10424 10426 10428 10429 10431 10432 10434 10436 10438 10441 10443 10446 10449 10452 10454 10456 10458 10459 10461 10463 10464 10466 10468 10469 10471 10473 10474 10476 10478 10479 10481 10483 10484 10485 10486 10488
10322 10323 10323 10323 10324 10324 10325 10326 10327 10328 10329 10329 10331 10332 10333 10334 10335 10336 10338 10339 10340 10341 10343 10344 10346 10349 10352 10355 10359 10362 10364 10368 10370 10373 10377 10379 10381 10382 10384 10388 10389 10391 10393 10396 10397 10399 10403 10406 10409 10411 10414 10415 10418 10420 10422 10423 10425 10427 10429 10431 10433 10435 10438 10441 10445 10447 10449 10451 10453 10455 10457 10459 10461 10463 10464 10466 10467 10469 10471 10473 10474 10476 10477 10478 10479 10481
10312 10312 10313 10313 10314 10314 10315 10316 10317 10318 10318 10319 10321 10322 10323 10324 10326 10327 10328 10330 10331 10333 10334 10335 10337 10339 10342 10345 10348 10351 10354 10356 10359 10364 10367 10369 10370 10372 10375 10378 10379 10381 10385 10386 10388 10391 10394 10396 10399 10403 10404 10406 10408 10410 10412 10414 10416 10418 10420 10422 10423 10425 10427 10430 10434 10437 10439 10441 10444 10446 10448 10451 10453 10455 10456 10458 10459 10461 10463 10466 10468 10469 10470 10471 10473 10474
10302 10302 10302 10303 10304 10304 10305 10306 10306 10308 10308 10309 10310 10312 10313 10315 10316 10318 10319 10321 10323 10324 10325 10326 10328 10330 10333 10336 10338 10341 10343 10346 10349 10353 10356 10359 10361 10363 10366 10368 10369 10373 10376 10377 10379 10381 10384 10386 10389 10393 10396 10398 10399 10401 10403 10405 10408 10410 10412 10413 10414 10416 10418 10420 10423 10426 10428 10431 10434 10436 10439 10441 10444 10446 10448 10449 10451 10453 10455 10457 10459 10461 10463 10464 10466 10467
10291 10291 10291 10292 10293 10294 10295 10296 10296 10297 10298 10299 10300 10301 10303 10305 10306 10308 10310 10312 10314 10316 10317 10318 10320 10322 10324 10326 10329 10331 10334 10336 10339 10342 10344 10346 10350 10354 10356 10356 10359 10363 10367 10368 10369 10372 10375 10378 10381 10384 10387 10389 10391 10392 10394 10397 10400 10403 10404 10404 10406 10408 10409 10411 10413 10416 10418 10421 10423 10426 10428 10431 10434 10436 10438 10440 10442 10444 10446 10449 10451 10453 10455 10457 10458 10460
10279 10279 10280 10281 10283 10284 10284 10285 10286 10286 10288 10289 10290 10291 10293 10294 10296 10298 10299 10302 10304 10306 10308 10309 10311 10313 10316 10318 10320 10323 10325 10328 10330 10332 10333 10336 10339 10343 10345 10347 10350 10354 10356 10358 10360 10363 10366 10369 10372 10374 10378 10379 10382 10384 10386 10389 10391 10393 10394 10396 10399 10401 10403 10404 10406 10408 10410 10412 10414 10416 10419 10422 10424 10426 10429 10431 10434 10436 10439 10441 10443 10446 10448 10451 10453 10454
10268 10268 10269 10269 10271 10273 10274 10274 10274 10276 10278 10279 10280 10281 10283 10284 10286 10288 10289 10291 10294 10296 10298 10300 10303 10304 10307 10309 10311 10314 10316 10319 10320 10322 10324 10326 10329 10332 10335 10338 10341 10343 10346 10348 10351 10354 10357 10359 10362 10365 10368 10371 10374 10376 10378 10381 10383 10384 10386 10389 10392 10394 10396 10398 10399 10401 10403 10405 10407 10409 10411 10414 10416 10419 10421 10423 10426 10429 10431 10434 10436 10439 10441 10444 10446 10448
10257 10258 10258 10258 10259 10261 10262 10263 10264 10265 10267 10269 10271 10272 10273 10274 10276 10277 10279 10281 10283 10285 10288 10290 10293 10296 10298 10300 10303 10304 10307 10309 10311 10313 10315 10318 10319 10323 10326 10328 10331 10333 10336 10339 10342 10344 10347 10349 10353 10356 10359 10363 10366 10368 10370 10373 10374 10376 10379 10382 10384 10386 10387 10390 10393 10395 10396 10399 10401 10403 10404 10407 10409 10412 10414 10416 10419 10421 10424 10426 10429 10432 10434 10438 10440 10443
10246 10247 10247 10247 10248 10249 10251 10252 10253 10254 10256 10258 10259 10261 10262 10264 10265 10267 10269 10271 10273 10275 10278 10281 10283 10286 10288 10290 10293 10294 10297 10299 10301 10303 10306 10308 10311 10314 10316 10319 10321 10324 10328 10330 10332 10334 10338 10341 10344 10348 10351 10354 10356 10359 10362 10364 10366 10369 10372 10374 10375 10376 10379 10383 10387 10389 10390 10393 10394 10396 10398 10401 10403 10406 10408 10410 10412 10414 10417 10420 10423 10425 10428 10431 10433 10436
10234 10234 10235 10236 10237 10239 10240 10241 10241 10243 10245 10247 10248 10249 10250 10252 10254 10257 10259 10261 10263 10265 10268 10271 10274 10276 10278 10280 10282 10284 10286 10289 10291 10294 10296 10299 10302 10305 10308 10310 10312 10314 10318 10320 10323 10325 10328 10332 10335 10338 10341 10345 10348 10351 10353 10356 10358 10361 10364 10366 10367 10369 10373 10377 10379 10381 10384 10386 10388 10390 10393 10395 10397 10399 10401 10404 10406 10408 10411 10414 10417 10419 10422 10424 10427 10429
10221 10221 10222 10224 10226 10227 10229 10229 10231 10232 10233 10234 10236 10237 10238 10240 10243 10246 10249 10251 10253 10254 10258 10261 10264 10267 10269 10270 10271 10274 10276 10279 10281 10284 10287 10290 10293 10296 10298 10301 10303 10306 10308 10311 10313 10316 10319 10323 10326 10329 10332 10336 10339 10342 10344 10347 10350 10353 10356 10358 10361 10364 10368 10368 10370 10374 10378 10379 10381 10384 10386 10388 10390 10393 10395 10398 10400 10403 10405 10408 10411 10413 10416 10418 10421 10424
10207 10207 10209 10211 10212 10214 10216 10218 10219 10221 10221 10222 10224 10225 10226 10229 10232 10235 10237 10239 10241 10243 10247 10251 10254 10257 10259 10260 10261 10263 10266 10268 10271 10273 10276 10279 10282 10285 10288 10291 10294 10298 10300 10303 10304 10307 10310 10314 10317 10319 10323 10327 10330 10333 10335 10338 10341 10344 10348 10350 10353 10355 10356 10358 10361 10367 10371 10373 10374 10377 10380 10382 10384 10387 10389 10392 10394 10396 10399 10402 10405 10408 10410 10413 10415 10418
10194 10194 10196 10197 10199 10201 10203 10204 10206 10208 10210 10211 10213 10214 10215 10217 10220 10223 10226 10227 10229 10232 10235 10239 10243 10247 10249 10250 10251 10253 10256 10258 10260 10263 10265 10268 10271 10275 10279 10282 10286 10289 10293 10295 10297 10299 10303 10305 10308 10310 10313 10318 10321 10323 10326 10329 10333 10336 10339 10342 10345 10348 10348 10351 10355 10360 10363 10365 10368 10371 10373 10376 10379 10382 10384 10386 10388 10390 10393 10396 10399 10402 10404 10407 10409 10412
10182 10182 10183 10184 10186 10187 10189 10191 10193 10196 10197 10200 10201 10202 10204 10206 10209 10212 10214 10216 10217 10220 10223 10227 10232 10236 10238 10239 10240 10243 10246 10248 10249 10251 10254 10257 10261 10264 10268 10272 10276 10280 10284 10287 10289 10291 10294 10296 10298 10301 10305 10309 10311 10313 10315 10319 10324 10327 10330 10333 10337 10340 10343 10345 10348 10351 10354 10357 10360 10363 10366 10370 10373 10376 10378 10379 10381 10384 10387 10390 10393 10396 10398 10401 10404 10406
10171 10171 10172 10172 10174 10175 10177 10178 10180 10182 10185 10187 10188 10190 10192 10195 10198 10201 10202 10204 10206 10208 10211 10215 10219 10223 10226 10227 10229 10232 10236 10237 10238 10240 10244 10247 10251 10254 10258 10261 10266 10270 10274 10278 10280 10283 10285 10288 10290 10293 10297 10299 10301 10303 10306 10311 10315 10318 10321 10324 10328 10332 10334 10336 10339 10342 10346 10350 10353 10356 10359 10364 10368 10369 10371 10373 10376 10379 10381 10384 10387 10390 10393 10396 10398 10401
10160 10160 10161 10161 10162 10163 10164 10166 10167 10170 10172 10173 10175 10177 10180 10183 10186 10189 10191 10192 10195 10197 10200 10203 10207 10210 10213 10214 10217 10221 10225 10226 10227 10230 10234 10237 10240 10243 10246 10251 10255 10259 10263 10267 10270 10273 10276 10279 10282 10286 10289 10291 10293 10296 10299 10303 10307 10310 10312 10316 10319 10323 10326 10328 10330 10334 10339 10343 10346 10349 10353 10357 10359 10361 10364 10368 10371 10373 10376 10378 10381 10384 10387 10390 10393 10395
10149 10149 10150 10151 10151 10152 10153 10154 10156 10157 10159 10161 10162 10164 10167 10171 10174 10177 10179 10181 10184 10186 10189 10192 10194 10197 10200 10202 10206 10209 10213 10216 10217 10220 10223 10226 10229 10232 10236 10240 10244 10248 10252 10256 10261 10264 10268 10271 10274 10277 10281 10284 10286 10289 10292 10296 10299 10302 10304 10308 10311 10314 10317 10319 10323 10326 10331 10334 10337 10341 10345 10349 10352 10354 10358 10362 10364 10366 10369 10372 10375 10378 10381 10384 10387 10389
10139 10139 10139 10140 10141 10141 10142 10143 10144 10146 10147 10149 10151 10152 10155 10157 10161 10164 10166 10169 10172 10175 10177 10180 10182 10185 10188 10191 10194 10197 10201 10204 10207 10209 10211 10214 10217 10221 10225 10229 10232 10237 10241 10245 10249 10254 10258 10261 10264 10268 10271 10276 10280 10283 10286 10288 10291 10294 10298 10300 10303 10306 10309 10312 10314 10318 10321 10325 10329 10333 10338 10343 10346 10349 10354 10356 10358 10360 10363 10366 10369 10371 10374 10378 10381 10383
10129 10129 10129 10130 10131 10131 10132 10132 10134 10135 10136 10137 10139 10141 10142 10145 10148 10151 10154 10157 10160 10162 10166 10168 10171 10174 10177 10179 10182 10185 10188 10192 10194 10197 10199 10202 10206 10210 10214 10218 10221 10226 10230 10234 10238 10243 10247 10251 10254 10258 10261 10266 10271 10276 10279 10281 10284 10288 10291 10293 10294 10298 10302 10304 10306 10309 10313 10316 10320 10325 10330 10334 10339 10343 10347 10350 10353 10354 10358 10360 10362 10364 10368 10371 10374 10376